Regional Weather Roundup
Issued by NWS Newport/Morehead, NC

Current Version | Previous Version | Text Only | Print | Product List | Glossary On
Versions: 1 2 3 4 5 6 7 8 9 10 11 12 13 14 15 16 17 18 19 20 21 22 23 24 25 26 27 28 29 30 31 32 33 34 35 36 37 38 39 40 41 42 43 44 45 46 47 48 49 50
000 ASUS42 KMHX 220525 RWRMHX WEATHER ROUNDUP FOR EASTERN NORTH CAROLINA NATIONAL WEATHER SERVICE NEWPORT/MOREHEAD CITY NC 1200 AM EST SUN JAN 22 2017 NOTE: "FAIR" INDICATES FEW OR NO CLOUDS BELOW 12,000 FEET WITH NO SIGNIFICANT WEATHER AND/OR OBSTRUCTIONS TO VISIBILITY NCZ015>017-031-032-045>047-102-103-220600- NORTH COAST CITY SKY/WX TMP DP RH WIND PRES REMARKS EDENTON DRIZZLE 54 53 96 CALM 29.67F ELIZABETH CITY CLOUDY 55 55 100 S3 29.68F KITTY HAWK NOT AVBL MANTEO DRIZZLE 61 61 100 SE9 29.68R $$ NCZ045>047-081-094-103-104-220600- CENTRAL COAST CITY SKY/WX TMP DP RH WIND PRES REMARKS FRISCO LGT RAIN 62 60 93 S9 29.69F FOG $$ NCZ095-097-098-100-101-220600- SOUTHERN COAST CITY SKY/WX TMP DP RH WIND PRES REMARKS BEAUFORT CLOUDY 66 64 93 S14 29.65S CEDAR ISLAND NOT AVBL JACKSONVILLE CLOUDY 64 63 96 SW6 29.65F PINEY ISLAND CLOUDY N/A N/A N/A S12 29.64F WILMINGTON MOCLDY 61 59 93 SW7 29.66F $$ NCZ011>013-027>030-043-044-078>080-089-090>093-098-220600- COASTAL PLAIN CITY SKY/WX TMP DP RH WIND PRES REMARKS AHOSKIE N/A 52 52 99 CALM 29.67F FOG CLINTON CLOUDY 63 63 100 S5 29.66F ELIZABETHTOWN MOCLDY 62 62 98 S3 29.66S GOLDSBORO FOG 57 57 100 CALM 29.63S VSB 3/4 GREENVILLE MOCLDY 55 55 100 SE3 29.69F FOG HAVELOCK CLOUDY 64 62 93 SW6 29.67R KENANSVILLE CLOUDY 64 63 94 S3 29.65F KINSTON CLOUDY 58 57 99 CALM 29.66F FOG NEW BERN CLOUDY 59 58 96 S5 29.67F RICHLANDS CLOUDY 64 63 96 SW10 29.66F ROCKY MOUNT FOG 56 56 100 CALM 29.66S VSB 1/4 WASHINGTON N/A 56 56 99 CALM N/A FOG WHITEVILLE CLOUDY 61 59 94 S7 29.67R $$ AMZ130-135-150-152-154-156-158-170-250-252-270-ANZ085-086-088-633-658-670-220600- MARINE OBSERVATIONS STATION/POSITION TIME TEMP WIND PRES WAVE SWELL AIR SEA DIR/SP/G HT/PER HT/PER (UTC) (F) (DEG/KT/KT) (MB) (FT/S) (FT/S) CHESAPEAKE LIGHT NOT AVBL 64 E VA BEACH 0450 61 57 160/ 10/ 12 1005.9 3/12 3/12 DUCK 0500 51 46 140/ 11/ 11 1004.0 2 E DUCK 0500 46 N/A 3/13 2/13 OREGON INLET 0500 55 49 130/ 6/ 9 1004.6 13E OREGON INLT NOT AVBL HATTERAS CG 0500 63 55 150/ 7/ 12 1004.4 DIAMOND BUOY 0450 68 74 160/ 10/ 16 1005.8 5/ 5 5/ 5 CAPE LOOKOUT 0500 66 220/ 6/ 9 1003.8 BEAUFORT LAB 0500 62 52 180/ 8/ 13 1003.0 30 SE NEW RVR IN 0508 64 67 240/ 12/ 17 1004.3 30 SE NEW RVR IN 0513 66 N/A 5/ 5 2/11 27 SE WRIGHTSVLE 0508 66 70 250/ 14/ 17 1004.0 5 SE WRIGHTSVLE 0508 57 210/ 6/ 10 1004.4 225 S CAPE HAT 0450 72 71 200/ 16/ 19 1010.3 5/ 6 3/10 41 SE CHARLESTON 0450 69 68 210/ 16/ 19 1005.9 4/ 6 2/10 $$

USA.gov is the U.S. government's official web portal to all federal, state and local government web resources and services.